Regional Weather Roundup
Issued by NWS

Home | Current Version | Previous Version | Graphics & Text | Print | Product List | Glossary On
Versions: 1 2 3 4 5 6 7 8 9 10 11 12 13 14 15 16 17 18 19 20 21 22 23 24 25 26 27 28 29 30 31 32 33 34 35 36 37 38 39 40 41 42 43 44 45 46 47 48 49 50
000
ASUS45 KTFX 211719
RWRMT
MONTANA HOURLY WEATHER ROUNDUP
NATIONAL WEATHER SERVICE GREAT FALLS MT
1119 AM MDT SUN SEP 21 2014

NOTE: "FAIR" INDICATES FEW OR NO CLOUDS BELOW 12000 FEET WITH NO
SIGNIFICANT WEATHER AND/OR OBSTRUCTIONS TO VISIBILITY.

* THESE STATIONS ARE NOT UNDER NWS QUALITY CONTROL. THEY DO NOT
   REPORT WEATHER SUCH AS PRECIPITATION OR FOG.

MTZ001>007-043-211800-
WEST OF THE DIVIDE
CITY           SKY/WX    TMP DP  RH WIND       PRES   REMARKS
KALISPELL      SUNNY     66  45  47 NE9       30.13F
MISSOULA       SUNNY     61  43  52 SE6       30.17F
BUTTE          SUNNY     63  39  41 CALM      30.27F
MULLAN PASS    SUNNY     61  37  41 SE8G18    30.21S
* ESSEX        N/A       58  42  55 S10G17     N/A
* LINCOLN      N/A       57  40  53 NE2        N/A
* LOOKOUT PASS N/A       62  40  45 S8G14      N/A
* POLSON       N/A       62  50  65 SE3        N/A
* RONAN APT    SUNNY     64  46  52 N/A        N/A
* SEELEY LAKE  N/A       60  40  48 S2         N/A
* THOMP F APT  SUNNY     70  39  32 S1G7       N/A
$$

MTZ008-052>055-211800-
SOUTHWEST MONTANA
CITY           SKY/WX    TMP DP  RH WIND       PRES   REMARKS
BOZEMAN        SUNNY     61  43  52 N3        30.26F
DILLON         PTCLDY    61  39  44 NE5       30.26F
W YELLOWSTONE  PTCLDY    57  39  51 N3        30.35F
* THREE FORKS  SUNNY     61  52  72 N/A        N/A
* BOULDER HILL N/A       58  39  49 S11        N/A
* MONIDA PASS  N/A       57  35  44 W3         N/A
* RAYNOLDS PAS N/A       58  51  78 NE1        N/A
* WHITEHALL    N/A       58  43  58 S4         N/A
* WISE RIVER   N/A       52  37  57 NW3        N/A
$$

MTZ009>010-012-014-046-048-049-054-211800-
EAST SLOPES AND CENTRAL MONTANA
CITY           SKY/WX    TMP DP  RH WIND       PRES   REMARKS
CUT BANK       SUNNY     63  43  48 SE9       30.21F
GREAT FALLS    SUNNY     63  45  52 SE5       30.22F
HELENA         SUNNY     61  43  52 CALM      30.23F
MALMSTROM AFB  SUNNY     61  45  56 VRB1      30.23F
* CONRAD       SUNNY     63  46  54 NE6        N/A
* EAST GLACIER N/A       61  42  50 S6         N/A
* MONARCH      N/A       62  36  38 NE6        N/A
* PENDROY      N/A       65  48  54 SE9        N/A
* ROGERS PASS  N/A       64  38  38 SE3        N/A
* SAINT MARY   N/A       58  47  67 N2         N/A
* SWEET GRASS  N/A       61  41  48 S12G17     N/A
* WHITE SULPH  N/A       62  44  52 NW3        N/A
$$

MTZ011-013-016-021-035-040-045-047-050-051-211800-
NORTH CENTRAL MONTANA
CITY           SKY/WX    TMP DP  RH WIND       PRES   REMARKS
HAVRE          SUNNY     63  45  52 NE6       30.22F
LEWISTOWN      SUNNY     68  43  40 E7        30.26F
* CHINOOK      SUNNY     63  46  54 E9        30.23F
* FORT BENTON  SUNNY     61  45  56 CALM      30.23F
* CHESTER      N/A       63  39  41 SE9G14     N/A
* DENTON       N/A       67  42  40 SE12G17    N/A
* GEYSER       N/A       63  43  48 NE8        N/A
* JUDITH GAP   N/A       61  45  56 S12        N/A
* LOMA         N/A       61  43  52 SE10G15    N/A
$$

MTZ017>020-022>027-061-062-211800-
NORTHEAST MONTANA
CITY           SKY/WX    TMP DP  RH WIND       PRES   REMARKS
GLASGOW        SUNNY     63  43  48 S6        30.28F
JORDAN         SUNNY     70  37  30 SE13      30.28F
SIDNEY         SUNNY    N/A N/A N/A S5        30.31F
WOLF POINT     SUNNY     63  43  48 CALM      30.29F
* BEAVER HILL  N/A       66  38  36 SW5        N/A
* CIRCLE       N/A       68  42  39 N/A        N/A
* LINDSAY DVD  N/A       67  33  28 SE1G6      N/A
$$

MTZ028>042-056>058-211800-
SOUTHCENTRAL AND SOUTHEAST MONTANA
CITY           SKY/WX    TMP DP  RH WIND       PRES   REMARKS
BAKER          SUNNY     64  36  35 CALM      30.33F
BILLINGS       SUNNY     61  45  56 SE3       30.28F
LIVINGSTON     SUNNY     59  43  56 VRB3      30.28F
MILES CITY     SUNNY     64  41  43 SE7       30.30F
* LAUREL APT   SUNNY     61  43  52 N/A        N/A
* ROUNDUP APT  SUNNY     64  43  47 N/A        N/A
* ALZADA       N/A       66  35  32 SE4        N/A
* HYSHAM       N/A       68  40  36 SE6        N/A
* LAME DEER    N/A       63  40  43 SE8        N/A
* REED POINT   N/A       61  40  46 SE3        N/A
* ROSCOE HILL  N/A       60  37  43 NE4G9      N/A
$$

REGIONAL REPORTS...DAKOTAS
CITY           SKY/WX    TMP DP  RH WIND       PRES   REMARKS
WILLISTON      SUNNY     63  43  48 S7        30.29F
DICKINSON      SUNNY     66  39  37 NW8       30.31R
BEACH          N/A       64  34  33 W3        30.33S
CROSBY         SUNNY     66  41  40 SW3       30.27F
TIOGA          SUNNY     64  39  40 SW7       30.32S
WATFORD CITY   SUNNY     66  37  34 W7        30.28F
BISMARCK       SUNNY     66  46  49 VRB3      30.30S
GRAND FORKS    PTSUNNY   59  52  78 N13       30.23R
FARGO          CLOUDY    61  52  72 N7        30.23R
BUFFALO SD     SUNNY     66  36  33 VRB3      30.27F
RAPID CITY     SUNNY     66  37  34 SE7       30.36S
$$

REGIONAL REPORTS...WYOMING/IDAHO/WASHINGTON
CITY           SKY/WX    TMP DP  RH WIND       PRES   REMARKS
GILLETTE       SUNNY     68  39  35 S12       30.34F
SHERIDAN       SUNNY     63  45  52 CALM      30.30F
CODY           SUNNY    N/A N/A N/A N/A        N/A
YELLOWSTONE LA PTCLDY    55  41  59 E3        30.43S
SALMON         PTSUNNY   59  45  60 SW3       30.17F
MULLAN PASS    SUNNY     61  37  41 SE8G18    30.21S
SAND POINT     SUNNY     68  46  45 NE12      30.05F
SPOKANE        SUNNY     68  46  45 NE7       30.03R
$$

REGIONAL REPORTS...ALBERTA
CITY           SKY/WX    TMP DP  RH WIND       PRES   REMARKS
CALGARY        SUNNY     63  45  52 S9        30.11F
LETHBRIDGE     N/A       66  46  49 S7        30.16F
MEDICINE HAT   N/A       72  43  35 S13       30.17F
EDMONTON       SUNNY     70  46  42 S14G22    30.03F
WATERTON GATE  N/A       66  43  43 SW1        N/A
CARDSTON       N/A       68  48  49 S7         N/A
MILK RIVER     N/A       66  43  43 S16        N/A
$$

REGIONAL REPORTS...SASKATCHEWAN
CITY           SKY/WX    TMP DP  RH WIND       PRES   REMARKS
SWIFT CURRENT  SUNNY     68  37  32 SW16G22   30.22F
REGINA         N/A       64  43  47 W8        30.24F
VAL MARIE      N/A       64  39  40 S10        N/A
ASSINIBOIA     N/A       68  34  28 SW9        N/A
CORONACH       N/A       66  36  33 SW9        N/A

$$




USA.gov is the U.S. government's official web portal to all federal, state and local government web resources and services.